Regional Weather Roundup
Issued by NWS

Home | Current Version | Previous Version | Graphics & Text | Print | Product List | Glossary Off
Versions: 1 2 3 4 5 6 7 8 9 10 11 12 13 14 15 16 17 18 19 20 21 22 23 24 25 26 27 28 29 30 31 32 33 34 35 36 37 38 39 40 41 42 43 44 45 46 47 48 49 50

000
ASUS43 KTOP 171859
RWRKS

WEATHER ROUNDUP FOR KANSAS
NATIONAL WEATHER SERVICE GOODLAND KS
100 PM CST SAT FEB 17 2018

NOTE:  "FAIR" INDICATES FEW OR NO CLOUDS BELOW 12,000 FEET WITH NO
SIGNIFICANT WEATHER AND/OR OBSTRUCTIONS TO VISIBILITY.

KSZ001>006-013>018-027>032-041>047-172000-
NORTHWEST KANSAS

CITY           SKY/WX    TMP DP  RH WIND       PRES   REMARKS
GOODLAND       SUNNY     49  14  24 N23G35    30.10F
HAYS           SUNNY     54  17  23 NW22G30   30.12F
HILL CITY      SUNNY     54  17  23 NW16G28   30.12F
RUSSELL        SUNNY     56  19  23 NW20G26   30.11S
$$

KSZ061>065-074>080-084>089-172000-
SOUTHWEST KANSAS

CITY           SKY/WX    TMP DP  RH WIND       PRES   REMARKS
DODGE CITY     SUNNY     56  14  19 N20G32    30.13S
GARDEN CITY    SUNNY     54  10  17 N21G37    30.13F
GREAT BEND     SUNNY     56  16  20 N18G28    30.13S
LIBERAL        SUNNY     56  11  16 N28G33    30.12F
$$

KSZ066>073-081>083-090>101-172000-
SOUTHEAST KANSAS

CITY           SKY/WX    TMP DP  RH WIND       PRES   REMARKS
CHANUTE        SUNNY     52  36  54 NW8       30.09S
COFFEYVILLE    SUNNY     52  39  61 NW10      30.11S
HUTCHINSON     SUNNY     58  20  22 NW23      30.11R
MEDICINE LODGE   N/A     59  15  18 N28G37    30.09S
NEWTON         SUNNY     55  21  26 N23G29    30.11R
PARSONS        MOSUNNY   52  38  58 NW10      30.10F
WICHITA INTL   SUNNY     59  18  20 N28G36    30.09R
WICHITA JABRA  SUNNY     58  19  22 N24       30.10R
WICHITA MCCONL SUNNY     59  17  19 N21G32    30.09R
WINFIELD       SUNNY     55  32  41 N7        30.11S
$$

KSZ007>012-019>026-033>040-048>060-102>105-172000-
NORTHEAST KANSAS

CITY           SKY/WX    TMP DP  RH WIND       PRES   REMARKS
CONCORDIA      SUNNY     52  16  24 NW13G24   30.09S
EMPORIA        SUNNY     54  23  30 NW20G28   30.09R
LAWRENCE       SUNNY     53  26  35 W20G25    30.06R
MANHATTAN      SUNNY     56  18  22 NW10G21   30.09R
OLATHE IND     SUNNY     50  29  44 NW13G23   30.06R
OLATHE EXE     SUNNY     49  30  48 W12G22    30.04S
SALINA         SUNNY     57  19  22 NW20      30.12R
TOPEKA BILLARD SUNNY     54  25  32 NW15G25   30.07R
TOPEKA FORBES  SUNNY     54  24  31 NW18G26   30.06R
$$



USA.gov is the U.S. government's official web portal to all federal, state and local government web resources and services.